TimeEST,TemperatureF,Dew PointF,Humidity,Sea Level PressureIn,VisibilityMPH,Wind Direction,Wind SpeedMPH,Gust SpeedMPH,PrecipitationIn,Events,Conditions,WindDirDegrees,DateUTC
12:55 AM,56.1,49.8,79,30.16,10.0,NE,5.8,-,N/A,,Overcast,40,2012-12-06 05:55:00
1:55 AM,55.6,46.4,71,30.17,10.0,NE,5.8,-,N/A,,Overcast,50,2012-12-06 06:55:00
2:55 AM,55.8,47.3,73,30.17,10.0,NE,5.8,-,N/A,,Overcast,40,2012-12-06 07:55:00
3:30 AM,55.4,48.2,77,30.17,10.0,NE,4.6,-,N/A,,Overcast,50,2012-12-06 08:30:00
3:35 AM,55.4,48.2,77,30.17,10.0,ENE,5.8,-,N/A,,Overcast,60,2012-12-06 08:35:00
3:38 AM,55.4,48.2,77,30.17,10.0,ENE,4.6,-,N/A,,Overcast,60,2012-12-06 08:38:00
3:45 AM,55.4,48.2,77,30.17,10.0,ENE,5.8,-,N/A,,Overcast,70,2012-12-06 08:45:00
3:55 AM,55.9,48.7,77,30.16,10.0,NE,5.8,-,N/A,,Overcast,50,2012-12-06 08:55:00
4:32 AM,55.4,50.0,82,30.16,10.0,NE,4.6,-,N/A,,Overcast,50,2012-12-06 09:32:00
4:55 AM,55.8,50.2,82,30.17,10.0,NNE,6.9,-,N/A,,Overcast,20,2012-12-06 09:55:00
5:26 AM,55.4,50.0,82,30.17,10.0,NNE,3.5,-,N/A,,Overcast,30,2012-12-06 10:26:00
5:47 AM,55.4,51.8,88,30.17,10.0,ENE,6.9,-,N/A,,Overcast,60,2012-12-06 10:47:00
5:55 AM,55.0,51.6,88,30.17,10.0,NE,4.6,-,N/A,,Overcast,40,2012-12-06 10:55:00
6:19 AM,55.4,51.8,88,30.18,10.0,Variable,6.9,-,N/A,,Overcast,0,2012-12-06 11:19:00
6:28 AM,55.4,51.8,88,30.19,10.0,Variable,5.8,-,N/A,,Overcast,0,2012-12-06 11:28:00
6:55 AM,54.7,48.9,81,30.20,10.0,ENE,10.4,17.3,N/A,,Overcast,60,2012-12-06 11:55:00
7:55 AM,53.4,47.5,80,30.22,10.0,ENE,8.1,-,N/A,,Overcast,70,2012-12-06 12:55:00
7:59 AM,53.6,48.2,82,30.22,10.0,ENE,9.2,-,N/A,,Overcast,60,2012-12-06 12:59:00
8:55 AM,54.0,45.1,72,30.23,10.0,NE,6.9,-,N/A,,Overcast,50,2012-12-06 13:55:00
9:55 AM,54.9,41.9,62,30.25,10.0,ENE,10.4,-,N/A,,Overcast,60,2012-12-06 14:55:00
10:55 AM,55.9,42.4,61,30.24,10.0,NE,12.7,18.4,N/A,,Mostly Cloudy,40,2012-12-06 15:55:00
11:55 AM,57.4,42.3,57,30.22,10.0,NE,9.2,16.1,N/A,,Mostly Cloudy,40,2012-12-06 16:55:00
12:37 PM,60.8,42.8,52,30.20,10.0,NNE,9.2,-,N/A,,Scattered Clouds,30,2012-12-06 17:37:00
12:55 PM,60.4,44.6,56,30.19,10.0,NNE,8.1,-,N/A,,Scattered Clouds,20,2012-12-06 17:55:00
1:55 PM,59.4,41.9,52,30.17,10.0,Variable,6.9,-,N/A,,Scattered Clouds,0,2012-12-06 18:55:00
2:55 PM,57.7,39.9,51,30.18,10.0,NNE,9.2,-,N/A,,Mostly Cloudy,30,2012-12-06 19:55:00
3:55 PM,57.7,39.9,51,30.18,10.0,ENE,9.2,-,N/A,,Mostly Cloudy,60,2012-12-06 20:55:00
4:55 PM,53.8,38.7,57,30.19,10.0,NNE,6.9,-,N/A,,Mostly Cloudy,20,2012-12-06 21:55:00
5:55 PM,51.1,37.9,61,30.20,10.0,Variable,6.9,-,N/A,,Mostly Cloudy,0,2012-12-06 22:55:00
6:55 PM,50.4,36.3,59,30.21,10.0,Variable,6.9,-,N/A,,Mostly Cloudy,0,2012-12-06 23:55:00
7:55 PM,50.2,36.1,59,30.21,10.0,NE,6.9,-,N/A,,Mostly Cloudy,40,2012-12-07 00:55:00
8:55 PM,49.6,36.5,61,30.22,10.0,ENE,5.8,-,N/A,,Overcast,70,2012-12-07 01:55:00
9:55 PM,48.9,37.0,64,30.20,10.0,NE,4.6,-,N/A,,Mostly Cloudy,40,2012-12-07 02:55:00
10:06 PM,48.2,37.4,66,30.19,10.0,NNE,3.5,-,N/A,,Mostly Cloudy,30,2012-12-07 03:06:00
10:55 PM,47.3,37.0,68,30.19,10.0,Calm,Calm,-,N/A,,Mostly Cloudy,0,2012-12-07 03:55:00
11:15 PM,48.2,37.4,66,30.18,10.0,North,3.5,-,N/A,,Overcast,360,2012-12-07 04:15:00
11:55 PM,48.6,36.0,62,30.18,10.0,Calm,Calm,-,N/A,,Overcast,0,2012-12-07 04:55:00